Weather History for Marathon, FL

Change the Weather History Date:

Saturday, March 8, 2014

  Actual Average Record
Temperature  
Mean Temperature 66 °F 73 °F  
Max Temperature 70 °F 78 °F 86 °F (1998)
Min Temperature 62 °F 68 °F 55 °F (2001)
Degree Days  
Heating Degree Days 0 0  
Month to date heating degree days 0 0  
Since 1 July heating degree days 35 75  
Cooling Degree Days 1 8  
Month to date cooling degree days 75 64  
Year to date cooling degree days 581 446  
Growing Degree Days 16 (Base 50)    
Moisture  
Dew Point 56 °F    
Average Humidity 73    
Maximum Humidity 84    
Minimum Humidity 61    
Precipitation  
Precipitation 0.00 in 0.09 in 0.30 in (2008)
Month to date precipitation 0.81 0.62  
Year to date precipitation 4.50 4.44  
Snow  
Snow 0.00 in - - ()
Month to date snowfall 0.0  
Since 1 July snowfall 0.0  
Snow Depth 0.00 in    
Sea Level Pressure  
Sea Level Pressure 30.09 in    
Wind  
Wind Speed 6 mph (NNE)    
Max Wind Speed 15 mph    
Max Gust Speed 20 mph    
Visibility 10 miles    
Events      
T = Trace of Precipitation, MM = Missing Value Source: NWS Daily Summary

Daily Weather History Graph

Daily Weather History Graph

Search for Another Location

Airport:

Trip Planner

Search our weather history database for the weather conditions in past years. The results will help you decide how hot, cold, wet, or windy it might be!

Date:

Astronomy

Mar. 08, 2014 Rise Set
Actual Time 6:40 AM EST 6:30 PM EST
Civil Twilight 6:17 AM EST 6:52 PM EST
Nautical Twilight 5:50 AM EST 7:19 PM EST
Astronomical Twilight 5:24 AM EST 7:45 PM EST
Moon 11:58 AM EST (3/8) 12:48 AM EST (3/8)
Length of Visible Light 12h 35m
Length of Day
11h 49m
First Quarter, 51% of the Moon is Illuminated
Mar 8
First Quarter
Mar 16
Full
Mar 23
Last Quarter
Mar 30
New
Apr 7
First Quarter

Hourly Weather History & Observations

Time (EST) Temp. Dew Point Humidity Pressure Visibility Wind Dir Wind Speed Gust Speed Precip Events Conditions
12:53 AM 69.1 °F 57.0 °F 65% 30.03 in 10.0 mi NNW 11.5 mph 17.3 mph N/A   Overcast
1:53 AM 69.1 °F 55.0 °F 61% 30.01 in 10.0 mi NW 9.2 mph - N/A   Partly Cloudy
2:53 AM 68.0 °F 55.0 °F 63% 30.01 in 10.0 mi NW 10.4 mph - N/A   Mostly Cloudy
3:53 AM 64.9 °F 57.0 °F 75% 30.01 in 10.0 mi North 8.1 mph - N/A   Scattered Clouds
4:53 AM 64.0 °F 57.9 °F 80% 30.02 in 10.0 mi NNE 10.4 mph - N/A   Clear
5:53 AM 63.0 °F 57.0 °F 81% 30.05 in 10.0 mi NNE 8.1 mph - N/A   Partly Cloudy
6:53 AM 62.1 °F 55.9 °F 80% 30.09 in 10.0 mi NNE 6.9 mph - N/A   Scattered Clouds
7:00 AM 62.1 °F 55.9 °F 80% 30.09 in 10.0 mi NNE 8.1 mph - N/A   Mostly Cloudy
7:53 AM 63.0 °F 55.0 °F 75% 30.11 in 10.0 mi NNE 8.1 mph - N/A   Overcast
8:53 AM 64.0 °F 55.0 °F 73% 30.13 in 10.0 mi NNE 10.4 mph - N/A   Overcast
9:53 AM 64.9 °F 55.0 °F 70% 30.14 in 10.0 mi NNE 8.1 mph - N/A   Overcast
10:53 AM 66.0 °F 55.0 °F 68% 30.14 in 10.0 mi NNE 6.9 mph - N/A   Overcast
11:53 AM 66.9 °F 55.0 °F 66% 30.12 in 10.0 mi NE 5.8 mph - N/A   Overcast
12:53 PM 66.9 °F 55.9 °F 68% 30.11 in 10.0 mi North 5.8 mph - N/A   Mostly Cloudy
1:18 PM 66.9 °F 55.0 °F 66% 30.10 in 10.0 mi North 6.9 mph - N/A   Partly Cloudy
1:53 PM 66.9 °F 55.0 °F 66% 30.09 in 10.0 mi Variable 3.5 mph - N/A   Clear
2:53 PM 66.9 °F 55.0 °F 66% 30.07 in 10.0 mi Variable 3.5 mph - N/A   Clear
3:53 PM 68.0 °F 55.9 °F 65% 30.07 in 10.0 mi NNW 4.6 mph - N/A   Clear
4:53 PM 66.9 °F 55.9 °F 68% 30.08 in 10.0 mi Calm Calm - N/A   Clear
5:53 PM 66.9 °F 55.9 °F 68% 30.09 in 10.0 mi NNE 3.5 mph - N/A   Clear
6:53 PM 66.0 °F 57.0 °F 73% 30.10 in 10.0 mi Calm Calm - N/A   Clear
7:53 PM 64.9 °F 57.0 °F 75% 30.11 in 10.0 mi NNE 3.5 mph - N/A   Clear
8:53 PM 66.0 °F 57.0 °F 73% 30.12 in 10.0 mi NE 4.6 mph - N/A   Clear
9:53 PM 66.0 °F 57.9 °F 75% 30.14 in 10.0 mi Calm Calm - N/A   Clear
10:53 PM 66.0 °F 57.0 °F 73% 30.14 in 10.0 mi ENE 3.5 mph - N/A   Clear
11:53 PM 64.9 °F 57.0 °F 75% 30.14 in 10.0 mi ENE 3.5 mph - N/A   Clear